cover

Wood Holly - Space Cash (Original Mix)

Get it on iTunes StoreListen on Apple Music

Trackname / Key / BPM / Publish dateArtists, Remixers / Label
126 bpm, 1B / B major, 2014-07-14, Breaks,  0  20

Tracks in release 2014 Perfect Driver Showcase Part 2 - Compiled & Mixed by Thee Mike B

#Trackname / Key / BPM / Publish dateArtists, Remixers / Label
1 130 bpm, 6B / Bb major, 2014-07-14, Tech House,  1  20
2 128 bpm, 8A / A minor, 2014-07-14, Techno,  0  20
3 127 bpm, 11B / A major, 2014-07-14, Tech House,  0  20
4 128 bpm, 1A / Ab minor, 2014-07-14, Tech House,  0  20
5 126 bpm, 3A / Bb minor, 2014-07-14, Breaks,  0  20
6 126 bpm, 1B / B major, 2014-07-14, Breaks,  0  20
7 126 bpm, 10A / B minor, 2014-07-14, Tech House,  0  20
8 126 bpm, 1B / B major, 2014-07-14, Tech House,  0  20
9 125 bpm, 6A / G minor, 2014-07-14, Electronica,  0  20
10 124 bpm, 9B / G major, 2014-07-14, Indie Dance / Nu Disco,  0  20
11 124 bpm, 7A / D minor, 2014-07-14, Indie Dance / Nu Disco,  1  20
12 123 bpm, 12B / E major, 2014-07-14, House,  0  20
13 123 bpm, 8A / A minor, 2014-07-14, House,  3  20
14 123 bpm, 2A / Eb minor, 2014-07-14, House,  0  20
15 122 bpm, 6A / G minor, 2014-07-14, Deep House,  0  20
16 246 bpm, 9A / E minor, 2014-07-14, Electronica,  0  20
17 122 bpm, 9A / E minor, 2014-07-14, Indie Dance / Nu Disco,  10  20
18 120 bpm, 9B / G major, 2014-07-14, Electro House,  0  20
19 119 bpm, 6A / G minor, 2014-07-14, Breaks,  2  20
20 126 bpm, 10A / B minor, 2014-07-14, Electro House,  0  20
×

Sign in

Sign in to access your personalized pages, follow artists and labels you love, and create playlists fromyour favorite tracks.

Please wait...